Wind_Speed
7 7 7 7 7 7 7 7 7 7 7 7 8 7 7 7 6 6 7 7 7 7 7 7 7 7 7 8 8 8 7 7 7 7 7 7 8 8 8 8 8 9 9
8 8 8 8 8 8 7 7 7 7 7 7 7 7 7 7 7 7 7 7 7 7 7 7 6 7 7 7 7 7 6 7 7 7 7 7 7 8 8 8 8 9 9
9 9 9 9 8 8 8 8 7 7 7 7 7 7 7 7 7 7 7 6 6 6 6 6 7 7 6 5 5 6 6 6 6 7 7 7 8 9 9 9 9 9 9
10 10 10 10 10 9 9 9 8 8 8 8 8 8 8 8 7 7 6 6 5 5 6 6 7 6 6 5 5 5 6 6 6 7 8 8 8 9 9 9 9 9 9
11 11 11 11 10 10 9 9 9 9 8 8 9 9 8 8 8 7 6 6 5 6 6 6 6 6 6 6 6 6 6 7 7 8 8 9 9 9 9 9 9 9 10
12 12 13 12 12 12 11 10 10 10 10 10 10 9 9 9 9 8 8 7 7 7 7 7 7 7 8 8 7 7 7 7 8 8 8 9 9 10 10 9 9 10 10
14 14 14 14 14 13 13 11 11 11 11 11 11 11 11 10 10 9 9 8 8 8 9 8 8 9 9 8 8 8 8 8 8 8 9 9 10 10 10 9 9 9 10
17 16 15 15 14 14 14 13 12 12 12 12 12 12 12 11 11 10 10 10 10 10 10 10 10 10 10 10 10 10 10 9 9 9 9 9 10 10 10 10 10 10 10
17 17 16 15 15 15 15 15 14 14 14 14 14 14 13 13 12 12 11 12 12 12 12 12 11 11 11 11 11 11 11 11 10 10 10 9 9 9 10 11 11 11 11
18 18 18 18 17 16 16 16 16 15 15 14 15 15 15 15 14 14 13 13 13 13 13 13 13 13 13 13 13 12 12 12 11 11 11 10 10 11 11 11 11 11 11
19 18 18 19 18 17 17 17 17 16 16 16 16 17 17 17 16 16 15 15 15 14 14 14 14 14 14 14 14 14 14 13 13 13 12 12 12 12 11 11 11 11 11
20 20 20 20 20 19 18 18 18 18 17 17 18 18 19 18 18 17 17 17 17 16 16 16 15 15 15 15 15 15 14 14 14 14 13 13 13 13 13 13 12 12 12
21 21 21 21 21 21 20 20 20 19 19 19 20 20 20 20 19 19 19 19 19 19 18 17 17 16 16 16 15 15 15 15 15 14 14 13 13 13 13 13 14 13 13
22 22 22 22 22 22 22 22 21 21 21 21 21 21 21 21 20 20 20 20 20 19 19 18 18 18 18 17 17 16 16 16 16 16 15 15 15 14 14 14 14 14 14
23 23 23 23 23 23 24 24 24 23 23 22 22 22 22 22 21 21 21 21 21 21 20 19 19 19 19 19 18 18 17 17 17 17 17 16 16 16 16 16 16 16 16
24 25 24 24 24 24 24 24 25 24 24 23 23 23 22 22 22 22 22 22 22 22 22 21 20 19 19 19 19 19 18 18 17 17 17 17 18 17 18 18 18 18 18
26 25 25 24 24 24 24 24 24 24 24 24 23 22 22 22 22 22 22 22 22 22 22 22 21 20 19 19 19 19 19 18 18 18 18 18 18 18 18 19 20 20 20
26 26 25 24 24 23 23 22 23 23 24 23 22 22 21 21 22 22 22 22 23 23 22 22 22 21 21 21 20 20 19 19 19 18 18 19 19 19 20 21 21 21 21
26 26 26 25 24 23 23 22 23 23 23 22 22 21 21 20 21 22 22 22 22 22 23 23 23 23 23 22 22 22 22 22 21 21 21 21 21 22 22 22 21 22 22
25 25 25 24 24 24 24 23 23 23 23 23 22 22 22 22 22 22 22 22 22 23 24 23 23 24 24 23 23 24 24 24 24 24 24 24 23 23 23 23 23 23 23
24 24 24 23 24 24 24 24 24 24 23 23 23 23 23 22 22 23 23 23 23 23 23 24 24 24 25 25 25 26 26 26 25 25 25 25 25 25 26 26 26 25 26
24 24 24 24 24 24 23 24 24 24 24 24 24 23 23 24 24 24 24 25 24 24 24 24 25 25 26 26 26 27 27 26 26 26 25 26 26 27 27 28 28 28 28
24 25 25 24 24 24 23 23 24 25 25 24 24 25 25 25 26 26 26 26 26 26 26 26 27 28 28 29 29 28 28 28 28 28 28 28 28 28 29 29 30 30 30
25 25 25 25 25 25 24 24 25 25 25 25 25 25 26 26 27 27 27 27 27 27 28 28 29 29 30 31 31 31 31 31 30 30 30 30 30 31 31 31 31 32 32
25 25 24 25 25 25 25 25 25 25 26 26 27 27 27 27 27 28 28 28 28 28 28 29 29 30 31 31 33 33 33 32 33 33 33 33 33 33 33 33 34 34 34
24 25 25 26 26 25 25 26 26 25 26 26 27 28 28 28 28 28 29 29 29 29 29 29 29 30 31 32 33 33 34 34 35 35 35 35 35 35 35 35 35 36 36
Wind_Direction
279 282 285 294 296 298 302 304 305 306 306 305 304 299 301 304 297 290 287 286 282 278 277 280 281 277 275 274 274 272 271 269 271 269 266 259 256 262 260 261 267 269 268
274 278 281 290 298 295 297 298 302 304 303 302 301 295 297 298 292 288 287 283 283 279 279 282 285 282 278 275 273 271 269 268 269 270 272 267 266 264 265 265 267 266 268
273 276 279 285 292 293 294 295 295 297 298 297 297 294 291 289 289 290 288 281 279 278 277 282 286 286 284 276 269 269 266 268 267 269 270 267 269 269 269 268 268 266 267
271 275 278 282 287 289 288 290 292 291 292 295 295 292 289 290 286 288 284 277 273 273 274 278 283 281 278 277 279 275 271 272 273 273 274 273 272 269 269 269 269 269 267
270 273 275 279 281 283 285 283 286 287 287 289 291 289 288 285 283 285 282 273 270 270 275 279 281 277 271 275 280 281 277 273 274 275 275 276 274 270 269 269 268 267 265
271 272 272 275 277 279 282 283 282 284 284 282 283 283 283 282 280 278 273 269 271 271 274 276 275 273 270 270 273 282 283 278 275 274 275 275 274 271 269 266 265 265 266
273 274 272 275 274 275 278 278 279 280 280 278 279 279 281 280 277 277 273 269 270 271 274 275 273 273 272 271 274 280 280 281 280 279 277 275 274 269 268 266 263 263 266
275 273 272 273 273 273 275 277 277 278 277 274 274 275 277 275 271 271 272 269 269 270 272 273 270 271 271 270 273 275 277 279 280 282 282 278 274 267 265 264 264 264 266
275 274 271 271 272 273 274 275 275 275 275 273 271 271 272 271 270 271 271 271 272 273 271 270 270 270 270 270 271 272 273 275 277 279 281 280 276 272 269 267 267 266 267
273 272 272 271 269 270 272 272 273 273 272 272 271 271 270 271 269 270 270 272 272 273 273 271 270 270 271 270 270 272 273 274 275 276 277 275 272 272 271 269 267 266 268
273 272 271 270 268 268 271 271 269 270 270 270 271 270 270 270 268 269 268 269 270 270 271 271 269 270 271 270 270 271 272 273 273 273 274 273 270 268 270 273 273 268 270
273 272 270 270 267 266 268 269 268 267 267 269 270 271 270 268 267 268 268 269 269 268 268 268 268 269 270 269 269 268 270 271 273 273 272 272 269 268 269 271 272 269 270
272 272 272 271 269 267 266 268 268 266 266 269 270 269 268 267 267 268 267 269 269 268 267 266 266 267 268 268 268 267 268 269 270 271 270 270 270 270 269 269 269 268 269
271 270 271 271 270 269 267 266 267 265 266 269 268 267 267 267 266 266 266 268 268 266 264 265 267 266 265 266 267 268 269 269 269 269 268 268 268 267 267 268 268 268 269
271 270 270 272 272 269 267 267 267 267 265 267 269 268 266 265 266 266 266 267 267 266 265 265 266 266 265 265 264 265 267 267 268 268 267 267 267 266 266 267 267 268 270
270 269 271 271 271 269 268 267 267 266 267 267 268 267 265 265 265 265 265 266 268 267 265 265 265 264 263 262 263 264 263 263 264 267 268 268 267 267 265 266 267 269 271
271 269 270 271 271 269 268 267 265 265 266 268 269 266 266 265 265 265 264 265 265 266 264 263 264 263 262 260 261 262 262 263 265 266 268 268 268 268 267 267 268 270 272
271 269 268 269 269 268 266 265 263 264 265 267 268 265 265 265 265 267 267 265 264 264 264 263 264 263 262 261 260 261 262 263 265 266 267 267 268 268 268 268 268 269 271
271 271 270 268 268 267 265 264 265 265 266 266 267 267 266 266 267 269 268 267 266 264 265 266 264 263 262 263 263 263 264 264 265 267 267 267 267 267 269 269 268 269 270
271 271 270 270 269 267 266 266 267 267 267 267 267 267 265 266 267 267 267 268 269 267 266 267 265 264 263 264 264 264 265 265 264 264 265 266 267 267 267 268 269 269 271
271 271 270 270 269 268 267 267 267 268 268 269 269 267 266 265 266 267 267 269 269 268 268 267 266 264 263 262 262 263 263 264 264 264 264 266 268 269 270 270 270 270 271
270 270 269 268 268 269 269 269 269 268 269 269 269 268 267 266 266 267 269 269 268 268 267 266 266 266 265 263 263 263 263 263 263 263 264 265 267 268 269 270 270 270 271
271 270 269 267 268 269 270 271 270 269 268 268 268 268 267 267 267 268 269 270 270 269 268 268 267 267 266 265 264 264 264 264 264 265 266 266 268 270 270 270 270 270 270
272 270 269 268 268 269 270 270 270 270 269 268 268 269 268 268 268 268 269 270 270 270 270 269 269 268 267 266 265 265 265 264 265 266 266 268 268 270 271 271 271 271 271
273 270 269 269 268 269 270 270 271 271 270 270 270 270 270 269 269 268 269 269 270 269 270 271 271 270 269 267 266 266 265 263 264 265 265 267 268 269 270 270 272 273 273
274 271 270 270 269 269 269 270 271 270 270 270 269 269 270 271 270 269 269 269 270 270 271 271 270 271 271 269 267 266 266 264 264 265 265 267 267 268 269 270 271 272 273
Height
5845 5844 5843 5843 5842 5841 5840 5839 5838 5838 5837 5836 5835 5834 5833 5832 5832 5831 5830 5830 5829 5828 5828 5828 5828 5827 5827 5827 5827 5826 5826 5827 5827 5827 5827 5827 5827 5828 5828 5828 5828 5829 5829
5843 5842 5842 5841 5840 5839 5838 5838 5837 5836 5835 5834 5833 5832 5832 5831 5830 5829 5829 5828 5827 5827 5826 5826 5826 5826 5825 5825 5825 5825 5825 5825 5825 5825 5825 5825 5826 5825 5826 5826 5826 5826 5826
5840 5840 5839 5838 5838 5837 5836 5836 5835 5834 5833 5833 5832 5831 5830 5829 5828 5828 5827 5826 5825 5825 5825 5824 5824 5824 5824 5823 5823 5823 5823 5823 5823 5823 5823 5823 5823 5823 5823 5823 5824 5824 5824
5838 5837 5837 5836 5836 5835 5834 5833 5833 5832 5831 5831 5830 5829 5828 5827 5826 5826 5825 5824 5824 5823 5823 5823 5823 5822 5822 5822 5822 5821 5821 5821 5821 5821 5821 5821 5821 5821 5821 5821 5821 5821 5822
5835 5835 5834 5834 5833 5832 5831 5831 5830 5830 5829 5828 5828 5827 5826 5826 5825 5824 5823 5822 5822 5822 5822 5821 5821 5821 5821 5820 5820 5820 5819 5819 5819 5819 5818 5818 5818 5818 5818 5818 5819 5819 5819
5832 5831 5831 5831 5830 5829 5829 5828 5827 5827 5826 5826 5825 5825 5824 5824 5823 5822 5821 5821 5820 5820 5820 5819 5819 5819 5819 5818 5818 5818 5817 5817 5817 5816 5816 5816 5816 5816 5816 5816 5816 5817 5817
5828 5828 5828 5827 5827 5826 5825 5825 5825 5824 5823 5823 5823 5822 5821 5821 5820 5820 5819 5819 5818 5818 5818 5817 5817 5817 5816 5816 5816 5816 5815 5815 5814 5814 5814 5813 5813 5813 5813 5814 5814 5814 5814
5824 5824 5824 5823 5823 5822 5822 5821 5821 5820 5820 5820 5819 5819 5818 5818 5818 5817 5817 5817 5816 5816 5815 5815 5815 5814 5814 5814 5813 5813 5813 5812 5812 5811 5811 5810 5810 5810 5810 5811 5811 5811 5812
5820 5819 5819 5818 5818 5818 5818 5817 5817 5817 5816 5816 5815 5815 5815 5815 5814 5814 5814 5814 5813 5813 5813 5812 5812 5811 5811 5811 5810 5810 5810 5810 5809 5809 5808 5808 5808 5808 5808 5808 5809 5809 5809
5815 5814 5814 5813 5813 5813 5813 5813 5813 5812 5812 5811 5811 5811 5811 5811 5810 5811 5810 5810 5810 5810 5809 5809 5809 5808 5808 5807 5807 5807 5807 5807 5806 5806 5806 5806 5805 5805 5805 5805 5805 5806 5806
5809 5809 5809 5808 5808 5808 5808 5808 5808 5807 5807 5807 5806 5806 5806 5806 5806 5806 5806 5806 5806 5806 5805 5805 5805 5805 5804 5804 5804 5803 5803 5803 5803 5803 5803 5802 5802 5802 5802 5802 5802 5803 5803
5803 5803 5803 5802 5802 5802 5802 5802 5802 5802 5802 5802 5801 5801 5801 5801 5801 5801 5801 5801 5801 5801 5801 5801 5801 5800 5800 5800 5800 5800 5800 5800 5799 5799 5799 5799 5798 5799 5799 5799 5799 5799 5799
5797 5797 5797 5796 5796 5796 5796 5796 5796 5796 5796 5796 5796 5795 5795 5795 5795 5795 5796 5796 5796 5796 5796 5796 5796 5796 5796 5796 5796 5795 5795 5795 5796 5795 5795 5795 5795 5795 5795 5796 5796 5796 5796
5790 5790 5790 5789 5789 5789 5789 5789 5789 5789 5789 5789 5789 5789 5789 5789 5789 5790 5790 5790 5790 5790 5790 5791 5791 5791 5791 5791 5791 5791 5791 5791 5791 5791 5791 5791 5791 5791 5792 5792 5792 5792 5792
5783 5782 5782 5782 5782 5782 5782 5782 5782 5782 5782 5783 5783 5782 5782 5782 5783 5783 5783 5784 5784 5784 5784 5785 5785 5785 5785 5785 5786 5786 5786 5786 5786 5787 5787 5787 5787 5787 5788 5788 5788 5788 5788
5775 5775 5775 5775 5774 5774 5774 5774 5774 5774 5775 5775 5775 5775 5775 5776 5776 5776 5777 5777 5777 5778 5778 5779 5779 5779 5779 5780 5780 5781 5781 5781 5782 5782 5782 5782 5782 5782 5783 5783 5783 5784 5784
5767 5767 5767 5767 5767 5767 5767 5767 5767 5767 5768 5768 5768 5768 5768 5769 5769 5769 5770 5770 5771 5771 5772 5772 5773 5773 5774 5774 5774 5775 5775 5776 5776 5776 5777 5777 5777 5777 5777 5778 5778 5778 5778
5759 5759 5759 5760 5760 5760 5760 5760 5760 5760 5760 5760 5760 5760 5761 5761 5762 5762 5763 5763 5764 5765 5765 5766 5766 5767 5767 5768 5768 5769 5769 5770 5770 5771 5771 5771 5771 5771 5772 5772 5772 5772 5772
5752 5751 5752 5752 5753 5752 5752 5753 5754 5754 5754 5753 5754 5754 5754 5755 5755 5756 5756 5756 5757 5758 5758 5759 5759 5760 5761 5761 5761 5762 5763 5763 5764 5764 5765 5765 5765 5765 5766 5766 5766 5766 5766
5744 5744 5745 5745 5746 5745 5746 5746 5747 5747 5747 5747 5747 5747 5748 5748 5749 5749 5749 5749 5750 5750 5751 5752 5752 5753 5753 5754 5754 5755 5756 5757 5757 5758 5758 5758 5758 5758 5758 5759 5759 5759 5759
5737 5737 5737 5738 5739 5739 5739 5739 5740 5740 5740 5740 5740 5740 5741 5741 5742 5742 5743 5743 5743 5743 5744 5744 5745 5745 5746 5746 5747 5747 5748 5749 5749 5750 5750 5751 5751 5751 5751 5751 5752 5752 5751
5729 5730 5731 5731 5731 5732 5732 5732 5732 5733 5733 5733 5733 5733 5734 5734 5735 5735 5735 5735 5735 5736 5736 5737 5737 5737 5738 5738 5738 5739 5739 5740 5741 5742 5742 5743 5743 5743 5743 5743 5743 5743 5743
5723 5723 5723 5724 5724 5725 5725 5725 5725 5725 5725 5726 5726 5726 5726 5727 5727 5727 5727 5727 5727 5728 5728 5728 5729 5729 5729 5729 5730 5730 5731 5731 5732 5733 5733 5734 5734 5734 5734 5734 5734 5734 5734
5716 5716 5716 5716 5717 5717 5717 5718 5718 5718 5718 5718 5718 5718 5718 5719 5719 5719 5719 5719 5719 5719 5719 5719 5719 5720 5720 5720 5720 5721 5722 5722 5723 5723 5724 5724 5725 5725 5725 5725 5724 5724 5724
5708 5708 5709 5709 5709 5709 5710 5710 5710 5710 5710 5710 5710 5710 5710 5710 5710 5710 5710 5710 5710 5710 5710 5710 5710 5710 5710 5710 5710 5711 5711 5712 5713 5713 5714 5714 5715 5715 5714 5714 5714 5714 5713
5701 5701 5701 5701 5702 5702 5702 5702 5702 5702 5702 5702 5702 5702 5702 5702 5702 5702 5702 5701 5701 5701 5700 5700 5700 5700 5700 5700 5699 5700 5700 5701 5701 5702 5703 5703 5704 5704 5704 5704 5703 5703 5703